Location: Peebles
(55.6412°N, 3.1714°W)
Time: 15:29:35
(UTC+01:00)

Cosmos 2227 Rocket - Pass Details

Date: 26 September 2021
Orbit: 837 x 846 km, 71.0° (Epoch: 17 October)

Event Time Altitude Azimuth Distance (km) Brightness Sun altitude
Rises 20:09:40 0° 319° (NW) 3,420 6.3 -10.5°
Reaches altitude 10° 20:12:34 10° 333° (NNW) 2,483 5.2 -10.9°
Maximum altitude 20:17:15 25° 28° (NNE) 1,643 3.6 -11.5°
Enters shadow 20:21:13 13° 78° (ENE) 2,280 3.9 -12.1°
